LKNA Weather Reports


Display with metric or nautical units.
time (UTC)temp
F
wind
direction
speed
MPH
gust
MPH
rain 1hr
in
rain 24hr
in
rain mn
in
humidity
%
barometer
mb
20260504023110 54 110 9.0 0.0 0.00 0.00 0.00 50 1014.0
20260504022035 52 110 9.0 0.0 0.00 0.00 0.00 53
20260504020105 52 110 9.0 0.0 0.00 0.00 0.00 53 1015.0
20260504013110 54 110 7.0 0.0 0.00 0.00 0.00 46 1014.0
20260504012033 54 110 7.0 0.0 0.00 0.00 0.00 50
20260504010241 54 100 7.0 0.0 0.00 0.00 0.00 50 1014.0
20260504003110 55 100 8.0 0.0 0.00 0.00 0.00 43 1015.0
20260504002034 54 100 9.0 0.0 0.00 0.00 0.00 50
20260504000105 55 100 8.0 0.0 0.00 0.00 0.00 43 1015.0
20260503233110 55 100 7.0 0.0 0.00 0.00 0.00 47 1015.0
20260503232035 55 100 7.0 0.0 0.00 0.00 0.00 47
20260503230239 55 100 7.0 0.0 0.00 0.00 0.00 47 1015.0
20260503223110 57 120 12.0 0.0 0.00 0.00 0.00 44 1015.0
20260503222034 57 120 12.0 0.0 0.00 0.00 0.00 44
20260503220113 57 120 10.0 0.0 0.00 0.00 0.00 44 1015.0
20260503213109 59 110 13.0 0.0 0.00 0.00 0.00 41 1015.0
20260503212034 59 110 14.0 0.0 0.00 0.00 0.00 41
20260503210113 59 110 13.0 0.0 0.00 0.00 0.00 41 1015.0
20260503203110 59 120 14.0 0.0 0.00 0.00 0.00 44 1015.0
20260503202033 61 120 16.0 0.0 0.00 0.00 0.00 44
20260503200113 61 120 16.0 0.0 0.00 0.00 0.00 44 1015.0
20260503193109 61 120 13.0 0.0 0.00 0.00 0.00 44 1016.0
20260503192033 63 130 9.0 0.0 0.00 0.00 0.00 42
20260503190105 63 130 9.0 0.0 0.00 0.00 0.00 42 1016.0
20260503183110 64 130 10.0 0.0 0.00 0.00 0.00 39 1016.0
20260503182035 64 130 14.0 0.0 0.00 0.00 0.00 42
20260503180242 66 130 12.0 0.0 0.00 0.00 0.00 37 1015.0
20260503173110 68 130 14.0 0.0 0.00 0.00 0.00 34 1015.0
20260503172034 68 130 16.0 0.0 0.00 0.00 0.00 37
20260503170105 70 130 15.0 0.0 0.00 0.00 0.00 32 1015.0
20260503160111 70 140 16.0 0.0 0.00 0.00 0.00 32 1015.0
20260503150239 72 140 17.0 0.0 0.00 0.00 0.00 33 1016.0
20260503140112 72 140 17.0 0.0 0.00 0.00 0.00 33 1016.0
20260503130104 72 150 20.0 0.0 0.00 0.00 0.00 30 1017.0
20260503120112 70 130 17.0 0.0 0.00 0.00 0.00 32 1018.0
20260503110111 70 140 17.0 0.0 0.00 0.00 0.00 32 1018.0
20260503100104 68 150 16.0 0.0 0.00 0.00 0.00 34 1019.0
20260503090240 66 140 16.0 0.0 0.00 0.00 0.00 37 1019.0
20260503080110 61 130 13.0 0.0 0.00 0.00 0.00 44 1020.0
20260503072031 59 120 14.0 0.0 0.00 0.00 0.00 47
20260503070111 57 120 14.0 0.0 0.00 0.00 0.00 50 1019.0
20260503060111 54 110 9.0 0.0 0.00 0.00 0.00 54 1019.0
20260503053110 52 90 12.0 0.0 0.00 0.00 0.00 57 1019.0
20260503052019 50 90 12.0 0.0 0.00 0.00 0.00 61
20260503050239 52 90 9.0 0.0 0.00 0.00 0.00 57 1019.0
20260503043110 50 90 10.0 0.0 0.00 0.00 0.00 57 1019.0
20260503042033 48 90 12.0 0.0 0.00 0.00 0.00 61
20260503040110 50 90 10.0 0.0 0.00 0.00 0.00 57 1018.0
20260503033103 48 70 7.0 0.0 0.00 0.00 0.00 61 1018.0
20260503032032 50 60 7.0 0.0 0.00 0.00 0.00 53
20260503030105 46 50 6.0 0.0 0.00 0.00 0.00 65 1018.0